SCP
0 0 0 0 0 0 0 0 0 0 0 0 0 0 0 0 0 0 0 0 0 0 0 0 0 0 0 0 0 0 0 0 0 0 0 0 0 0 0 0 0 0 0
0 0 0 0 0 0 0 0 0 0 0 0 0 0 0 0 0 0 0 0 0 0 0 0 0 0 0 0 0 0 0 0 0 0 0 0 0 0 0 0 0 0 0
0 0 0 0 0 0 0 0 0 0 0 0 0 0 0 0 0 0 0 0 0 0 0 0 0 0 0 0 0 0 0 0 0 0 0 0 0 0 0 0 0 0 0
1 0 0 0 0 0 0 0 0 0 0 0 0 0 0 0 0 0 0 0 0 0 0 0 0 0 0 0 0 0 0 0 0 0 0 0 0 0 0 0 0 0 0
1 0 0 0 0 0 0 0 0 0 0 0 0 0 1 0 0 0 0 0 0 0 0 0 0 0 0 0 0 0 0 0 0 0 0 0 0 0 0 0 0 0 0
1 0 0 0 0 0 0 0 0 0 0 0 0 0 0 0 0 0 0 0 0 0 0 0 0 0 0 0 0 0 0 0 0 0 0 0 0 0 0 0 0 0 0
0 0 0 0 0 0 0 0 1 1 0 0 0 0 0 0 0 0 0 0 0 0 0 0 0 0 0 0 0 0 0 0 0 0 0 0 0 0 0 0 0 0 0
1 1 0 0 0 0 1 1 1 1 0 0 0 0 0 0 0 0 0 0 0 0 0 0 0 0 0 0 0 0 0 0 0 0 0 0 0 0 0 0 0 0 0
1 1 0 0 1 1 1 1 1 0 0 0 0 0 0 0 0 0 0 0 0 0 0 0 0 0 0 0 0 0 0 0 0 0 0 0 0 0 0 0 0 0 0
1 1 0 0 1 1 1 1 1 0 0 0 0 0 0 0 0 0 0 0 0 0 0 0 0 0 0 0 0 0 0 0 0 0 0 0 0 0 0 0 0 0 0
0 0 0 0 1 1 0 0 0 0 0 0 0 0 0 0 0 0 0 0 0 0 0 0 0 0 0 0 0 0 0 0 0 0 0 0 0 0 0 0 0 0 0
0 0 0 1 0 0 0 0 0 0 0 0 0 0 0 0 0 0 0 0 0 0 0 0 0 0 0 0 0 0 0 0 0 0 0 0 0 0 0 0 0 0 0
1 1 1 0 0 0 0 0 0 0 0 0 0 0 0 0 0 0 0 0 0 0 0 0 0 0 0 0 0 0 0 0 0 0 0 0 0 0 0 0 0 -0 0
0 0 0 0 0 0 0 0 0 0 0 0 0 0 0 0 0 0 0 0 0 0 0 0 0 0 0 0 0 0 0 0 0 0 0 0 0 0 0 0 0 0 0
1 0 0 0 0 0 0 0 0 0 0 0 0 0 0 0 0 0 0 0 0 0 0 0 0 0 0 0 0 0 0 0 0 0 0 0 0 0 0 -0 0 0 0
0 0 0 0 0 0 0 0 0 0 0 0 0 0 0 0 0 0 0 0 0 0 0 0 0 0 0 0 0 0 0 0 0 0 0 0 0 0 0 0 0 -0 -0
0 0 0 0 0 0 0 0 0 0 0 0 0 0 0 0 0 0 0 0 0 0 0 0 0 0 0 0 0 0 0 0 0 0 0 0 0 0 0 0 -0 -0 0
0 0 0 0 0 0 0 0 0 0 0 0 0 0 0 0 0 0 0 0 0 0 0 0 0 0 0 0 0 0 0 0 0 0 0 0 0 0 0 0 -0 -0 -0
0 0 0 0 0 0 0 0 0 0 0 0 0 0 0 0 0 0 0 0 0 0 0 0 0 0 0 0 0 0 0 0 0 0 0 0 0 0 0 0 -0 -0 -0
0 0 0 0 0 0 0 0 0 0 0 0 0 0 0 0 0 0 0 0 0 0 0 0 0 0 0 0 0 0 0 0 0 0 0 0 0 0 0 -0 -0 -0 0
0 0 0 0 0 0 0 0 0 0 0 0 0 0 0 0 0 0 0 0 0 0 0 0 0 0 0 0 0 0 0 0 0 0 0 0 0 0 0 0 0 0 0
0 0 0 0 0 0 0 0 0 0 0 0 0 0 0 0 0 0 0 0 0 0 0 0 0 0 0 0 0 0 0 0 0 0 0 0 0 0 0 0 0 0 0
0 0 0 0 0 0 0 0 -0 -0 -0 -0 0 0 0 0 0 0 0 0 0 0 0 0 0 0 0 0 0 0 -0 0 0 0 0 0 0 0 0 0 0 0 0
0 0 0 0 -0 0 0 0 -0 0 0 0 0 -0 0 0 0 0 0 0 0 0 0 0 0 0 0 -0 -0 0 0 -0 0 0 0 0 0 0 0 0 0 0 0
0 0 0 0 0 0 0 -0 0 -0 0 -0 -0 0 0 0 0 0 0 0 0 0 0 0 0 -0 -0 -0 -0 0 0 0 0 0 0 0 0 0 0 0 0 0 0
0 0 0 0 0 0 0 -0 -0 -0 -0 -0 -0 0 0 0 0 0 0 0 0 0 0 0 0 -0 -0 -0 -0 -0 0 0 0 0 0 0 0 0 0 0 0 0 0
Wind_Speed_500mb
36 27 25 19 9 16 17 9 6 3 9 4 8 13 17 21 22 27 33 40 44 38 35 32 33 33 38 41 39 35 38 39 41 41 44 45 45 44 42 40 43 46 49
41 39 31 31 21 11 12 10 3 13 17 15 16 14 23 26 23 30 32 36 45 32 26 32 35 38 40 44 35 41 47 48 39 43 47 43 44 41 43 44 46 45 49
50 47 41 40 33 26 17 19 28 27 25 26 18 19 22 27 17 24 26 34 38 28 27 29 41 37 45 34 38 46 50 47 43 60 57 52 43 47 49 49 50 50 49
60 51 43 52 54 42 48 42 36 30 19 15 17 17 21 24 22 27 24 25 22 24 23 32 39 40 38 37 48 50 40 29 59 61 50 53 53 53 56 54 52 54 56
58 59 52 51 46 50 44 36 36 26 17 24 26 23 20 19 22 25 20 20 11 16 19 25 34 38 32 38 49 43 33 55 56 52 51 56 60 61 57 57 56 54 57
59 65 60 53 49 50 46 31 26 26 32 34 30 26 22 23 19 19 15 15 8 12 24 36 30 30 35 37 35 34 54 54 58 50 56 67 70 58 58 57 54 53 54
63 72 60 61 57 55 46 38 32 38 34 33 32 29 20 19 24 15 10 11 13 20 28 25 27 35 29 30 30 45 44 48 56 59 68 82 65 57 59 54 51 52 56
71 65 62 67 55 55 50 39 48 44 37 29 17 13 5 5 9 6 3 7 16 14 16 22 23 19 20 23 33 34 45 54 62 69 81 84 61 61 54 54 56 58 55
66 58 62 65 56 49 54 42 43 41 35 24 11 8 8 7 4 11 10 6 1 10 9 14 10 11 13 20 27 44 56 68 73 82 84 73 64 52 50 55 60 54 49
63 64 57 60 55 50 46 45 43 35 38 23 13 12 10 6 5 7 7 11 14 10 14 2 5 15 23 27 43 57 67 67 78 84 76 60 50 46 54 60 51 49 49
68 53 51 58 47 56 52 51 43 37 32 25 17 21 14 8 12 6 11 14 10 20 18 12 20 19 32 45 55 64 62 73 83 67 54 47 48 52 52 50 49 49 47
71 52 57 68 63 64 56 49 39 35 31 27 24 18 10 9 11 9 7 10 4 17 15 21 29 37 44 51 55 53 68 73 63 48 47 49 49 42 45 47 48 48 48
66 77 73 72 70 67 56 45 36 33 36 29 21 13 8 7 6 5 8 2 3 9 14 27 33 37 46 43 50 64 64 57 44 45 45 48 45 45 50 50 49 49 46
62 70 69 71 69 65 55 42 39 39 34 26 17 13 12 9 11 11 7 9 6 6 9 30 33 33 35 46 64 65 55 42 38 44 43 46 41 47 46 45 46 53 50
62 69 77 76 67 54 47 48 45 37 27 20 19 15 15 17 16 12 8 5 11 9 13 26 34 26 39 56 62 58 45 34 39 40 39 41 42 47 48 48 50 55 50
74 65 71 56 49 50 49 44 40 31 27 27 23 19 18 17 15 13 9 3 9 12 13 22 18 32 47 53 49 46 37 35 39 41 41 42 43 47 45 48 48 52 54
62 84 70 53 52 52 45 43 39 36 30 29 29 25 24 17 14 11 6 9 10 11 15 16 15 36 43 42 40 42 35 40 40 38 40 43 44 48 45 46 47 45 51
57 53 27 46 59 64 55 47 41 40 36 31 30 25 24 15 12 11 13 15 13 11 9 11 25 34 38 40 36 40 41 45 40 35 37 43 50 50 49 49 47 49 42
57 59 69 69 68 66 56 42 39 36 34 32 30 25 23 13 15 18 20 18 15 11 5 15 22 27 36 43 46 43 47 43 37 31 36 44 56 49 51 51 51 50 45
53 65 77 70 72 65 54 49 40 38 38 36 29 25 22 21 22 25 28 33 26 15 17 29 29 36 43 46 55 63 67 47 45 28 34 41 57 52 49 50 54 52 48
63 65 73 62 57 54 52 48 42 43 39 35 30 26 22 21 26 30 29 33 36 37 36 35 37 46 54 54 56 64 67 65 53 35 40 47 48 53 54 52 58 55 48
54 67 57 61 54 47 48 48 42 39 37 34 30 26 26 27 29 31 25 30 38 41 39 36 37 42 43 51 55 50 59 74 65 37 46 49 51 52 56 57 58 58 51
72 70 65 62 55 40 28 30 33 38 36 33 33 30 28 28 25 26 24 24 32 40 39 34 36 44 50 49 53 58 47 50 69 51 50 60 66 68 70 67 69 63 52
82 80 69 64 60 36 22 22 28 36 40 39 35 32 29 29 30 24 24 23 32 35 35 33 42 47 43 43 46 51 53 43 52 65 41 48 54 69 79 84 80 72 58
75 74 73 74 63 43 29 20 33 43 44 49 46 41 34 33 29 23 21 27 32 31 28 27 35 37 33 34 43 50 61 70 54 50 57 66 35 35 69 89 87 81 59
82 81 75 63 57 45 34 28 36 41 49 50 51 49 45 35 33 27 25 25 31 27 24 25 25 27 26 31 35 44 52 60 63 53 49 52 59 57 40 60 82 76 64
Wind_Direction_500mb
201 216 212 205 214 204 181 152 197 176 200 326 140 187 239 270 289 299 304 311 312 305 316 326 331 332 331 332 326 327 326 322 323 319 317 317 317 318 319 311 305 301 299
204 216 216 216 220 195 193 203 158 233 248 226 252 242 239 270 280 293 298 296 308 301 314 324 328 330 333 335 331 331 333 333 333 332 334 333 333 330 313 308 301 295 292
205 214 215 215 217 216 218 199 210 215 238 245 234 261 278 287 270 291 290 291 299 296 313 331 329 326 331 325 328 335 335 335 348 340 339 339 335 327 321 316 315 313 309
204 213 217 206 208 205 213 215 216 223 216 216 246 261 291 286 270 279 294 302 303 302 309 316 321 318 321 322 329 337 348 346 334 335 343 331 334 330 325 322 318 310 306
212 211 213 209 215 210 217 220 223 196 223 224 233 253 257 263 283 291 289 301 314 289 284 322 314 315 323 322 325 335 316 332 330 337 334 333 331 328 324 321 319 318 313
226 214 209 208 210 208 214 207 201 212 224 231 230 247 248 264 279 282 288 306 303 280 299 311 305 314 320 313 323 313 321 326 325 332 331 331 329 327 324 322 321 316 316
226 219 208 206 211 213 200 202 208 208 222 231 244 256 246 242 263 292 300 265 266 287 306 324 306 300 302 323 305 314 316 320 321 329 332 331 333 331 327 326 319 322 318
223 224 208 207 210 202 201 212 213 211 217 235 250 255 179 202 226 259 235 268 306 315 333 303 303 312 336 314 314 322 322 323 328 331 327 331 331 329 326 325 327 321 316
220 229 214 206 211 204 202 211 213 216 217 212 221 200 183 164 127 119 168 161 275 347 332 337 328 333 328 305 318 320 326 326 324 325 326 328 326 326 328 328 324 321 320
228 231 214 203 215 208 206 216 218 215 214 200 194 174 174 180 158 203 218 269 331 9 357 77 343 328 320 331 334 332 328 326 326 325 328 334 336 331 332 331 331 328 321
217 222 212 200 204 199 206 211 213 200 208 218 200 196 196 202 217 222 289 305 351 45 31 11 348 349 340 337 333 334 329 328 328 334 343 342 338 335 342 344 339 332 330
217 233 219 205 206 206 208 204 199 197 196 195 197 201 224 207 212 233 264 301 74 69 45 15 358 347 343 339 335 333 331 332 341 353 345 340 346 356 353 347 341 339 335
225 213 198 213 200 204 202 192 190 183 182 186 188 214 236 170 155 218 235 63 40 50 39 16 356 349 342 336 337 334 337 342 353 358 2 359 1 356 349 350 350 349 344
235 195 192 208 204 200 194 189 181 174 180 186 196 171 155 161 152 135 107 32 51 50 70 9 348 343 343 340 334 337 341 348 2 354 357 358 360 354 355 355 354 352 350
233 196 203 202 197 188 181 176 174 177 179 172 161 152 154 146 131 145 105 30 23 29 43 9 343 343 337 334 338 339 347 10 3 2 357 357 357 355 358 358 359 353 353
234 200 195 196 189 170 169 174 176 175 178 164 155 146 146 133 143 142 118 114 31 43 55 12 353 344 337 337 342 354 16 18 15 12 5 5 358 357 3 358 1 4 5
196 185 193 180 178 174 173 187 171 167 158 142 132 137 131 135 148 116 100 73 67 63 63 50 349 337 339 350 5 26 33 29 20 16 9 9 5 3 5 0 1 1 3
226 223 204 189 183 174 175 178 172 158 143 131 122 126 118 123 117 100 79 76 115 59 76 39 343 358 4 13 29 37 36 30 20 15 13 12 7 5 6 5 0 0 358
212 204 185 200 175 167 169 171 161 141 133 124 118 114 108 112 96 84 76 81 77 84 39 18 25 23 22 36 43 43 37 27 26 15 21 18 17 9 9 11 7 6 9
190 174 182 182 168 163 159 148 149 139 128 115 112 108 106 101 88 82 73 67 63 60 56 51 42 39 42 50 47 43 38 34 27 25 26 23 15 18 15 14 12 7 14
161 149 151 147 148 152 148 147 144 141 120 119 111 107 99 87 90 82 62 64 54 51 58 53 50 55 61 55 41 37 28 30 38 41 35 28 19 23 22 25 22 14 12
162 157 145 139 131 121 141 142 139 124 118 113 107 100 105 99 92 86 65 58 54 55 54 55 60 71 57 53 45 27 23 23 29 40 41 39 34 36 35 33 30 23 16
153 145 143 138 121 120 124 140 135 117 112 104 98 99 106 105 98 93 75 66 53 54 53 56 66 66 64 52 43 42 35 34 35 37 51 53 51 48 45 38 32 26 24
146 138 129 127 116 123 134 141 118 110 107 100 98 99 99 105 108 87 75 64 61 52 54 65 71 68 59 57 51 44 42 44 40 43 47 45 46 46 43 40 34 29 29
139 132 127 123 126 120 116 120 115 107 100 92 92 88 84 88 97 96 83 70 71 58 55 78 76 68 67 67 61 53 45 42 44 38 41 38 29 28 34 33 28 27 31
136 130 126 122 114 110 115 113 101 97 97 91 81 71 65 81 86 86 84 81 70 60 67 86 88 85 69 61 54 51 49 45 41 44 35 39 35 28 24 21 22 22 31
Wind_Speed_850mb
36 27 25 19 9 16 17 9 6 3 9 4 8 13 17 21 22 27 33 40 44 38 35 32 33 33 38 41 39 35 38 39 41 41 44 45 45 44 42 40 43 46 49
41 39 31 31 21 11 12 10 3 13 17 15 16 14 23 26 23 30 32 36 45 32 26 32 35 38 40 44 35 41 47 48 39 43 47 43 44 41 43 44 46 45 49
50 47 41 40 33 26 17 19 28 27 25 26 18 19 22 27 17 24 26 34 38 28 27 29 41 37 45 34 38 46 50 47 43 60 57 52 43 47 49 49 50 50 49
60 51 43 52 54 42 48 42 36 30 19 15 17 17 21 24 22 27 24 25 22 24 23 32 39 40 38 37 48 50 40 29 59 61 50 53 53 53 56 54 52 54 56
58 59 52 51 46 50 44 36 36 26 17 24 26 23 20 19 22 25 20 20 11 16 19 25 34 38 32 38 49 43 33 55 56 52 51 56 60 61 57 57 56 54 57
59 65 60 53 49 50 46 31 26 26 32 34 30 26 22 23 19 19 15 15 8 12 24 36 30 30 35 37 35 34 54 54 58 50 56 67 70 58 58 57 54 53 54
63 72 60 61 57 55 46 38 32 38 34 33 32 29 20 19 24 15 10 11 13 20 28 25 27 35 29 30 30 45 44 48 56 59 68 82 65 57 59 54 51 52 56
71 65 62 67 55 55 50 39 48 44 37 29 17 13 5 5 9 6 3 7 16 14 16 22 23 19 20 23 33 34 45 54 62 69 81 84 61 61 54 54 56 58 55
66 58 62 65 56 49 54 42 43 41 35 24 11 8 8 7 4 11 10 6 1 10 9 14 10 11 13 20 27 44 56 68 73 82 84 73 64 52 50 55 60 54 49
63 64 57 60 55 50 46 45 43 35 38 23 13 12 10 6 5 7 7 11 14 10 14 2 5 15 23 27 43 57 67 67 78 84 76 60 50 46 54 60 51 49 49
68 53 51 58 47 56 52 51 43 37 32 25 17 21 14 8 12 6 11 14 10 20 18 12 20 19 32 45 55 64 62 73 83 67 54 47 48 52 52 50 49 49 47
71 52 57 68 63 64 56 49 39 35 31 27 24 18 10 9 11 9 7 10 4 17 15 21 29 37 44 51 55 53 68 73 63 48 47 49 49 42 45 47 48 48 48
66 77 73 72 70 67 56 45 36 33 36 29 21 13 8 7 6 5 8 2 3 9 14 27 33 37 46 43 50 64 64 57 44 45 45 48 45 45 50 50 49 49 46
62 70 69 71 69 65 55 42 39 39 34 26 17 13 12 9 11 11 7 9 6 6 9 30 33 33 35 46 64 65 55 42 38 44 43 46 41 47 46 45 46 53 50
62 69 77 76 67 54 47 48 45 37 27 20 19 15 15 17 16 12 8 5 11 9 13 26 34 26 39 56 62 58 45 34 39 40 39 41 42 47 48 48 50 55 50
74 65 71 56 49 50 49 44 40 31 27 27 23 19 18 17 15 13 9 3 9 12 13 22 18 32 47 53 49 46 37 35 39 41 41 42 43 47 45 48 48 52 54
62 84 70 53 52 52 45 43 39 36 30 29 29 25 24 17 14 11 6 9 10 11 15 16 15 36 43 42 40 42 35 40 40 38 40 43 44 48 45 46 47 45 51
57 53 27 46 59 64 55 47 41 40 36 31 30 25 24 15 12 11 13 15 13 11 9 11 25 34 38 40 36 40 41 45 40 35 37 43 50 50 49 49 47 49 42
57 59 69 69 68 66 56 42 39 36 34 32 30 25 23 13 15 18 20 18 15 11 5 15 22 27 36 43 46 43 47 43 37 31 36 44 56 49 51 51 51 50 45
53 65 77 70 72 65 54 49 40 38 38 36 29 25 22 21 22 25 28 33 26 15 17 29 29 36 43 46 55 63 67 47 45 28 34 41 57 52 49 50 54 52 48
63 65 73 62 57 54 52 48 42 43 39 35 30 26 22 21 26 30 29 33 36 37 36 35 37 46 54 54 56 64 67 65 53 35 40 47 48 53 54 52 58 55 48
54 67 57 61 54 47 48 48 42 39 37 34 30 26 26 27 29 31 25 30 38 41 39 36 37 42 43 51 55 50 59 74 65 37 46 49 51 52 56 57 58 58 51
72 70 65 62 55 40 28 30 33 38 36 33 33 30 28 28 25 26 24 24 32 40 39 34 36 44 50 49 53 58 47 50 69 51 50 60 66 68 70 67 69 63 52
82 80 69 64 60 36 22 22 28 36 40 39 35 32 29 29 30 24 24 23 32 35 35 33 42 47 43 43 46 51 53 43 52 65 41 48 54 69 79 84 80 72 58
75 74 73 74 63 43 29 20 33 43 44 49 46 41 34 33 29 23 21 27 32 31 28 27 35 37 33 34 43 50 61 70 54 50 57 66 35 35 69 89 87 81 59
82 81 75 63 57 45 34 28 36 41 49 50 51 49 45 35 33 27 25 25 31 27 24 25 25 27 26 31 35 44 52 60 63 53 49 52 59 57 40 60 82 76 64
Wind_Direction_850mb
201 216 212 205 214 204 181 152 197 176 200 326 140 187 239 270 289 299 304 311 312 305 316 326 331 332 331 332 326 327 326 322 323 319 317 317 317 318 319 311 305 301 299
204 216 216 216 220 195 193 203 158 233 248 226 252 242 239 270 280 293 298 296 308 301 314 324 328 330 333 335 331 331 333 333 333 332 334 333 333 330 313 308 301 295 292
205 214 215 215 217 216 218 199 210 215 238 245 234 261 278 287 270 291 290 291 299 296 313 331 329 326 331 325 328 335 335 335 348 340 339 339 335 327 321 316 315 313 309
204 213 217 206 208 205 213 215 216 223 216 216 246 261 291 286 270 279 294 302 303 302 309 316 321 318 321 322 329 337 348 346 334 335 343 331 334 330 325 322 318 310 306
212 211 213 209 215 210 217 220 223 196 223 224 233 253 257 263 283 291 289 301 314 289 284 322 314 315 323 322 325 335 316 332 330 337 334 333 331 328 324 321 319 318 313
226 214 209 208 210 208 214 207 201 212 224 231 230 247 248 264 279 282 288 306 303 280 299 311 305 314 320 313 323 313 321 326 325 332 331 331 329 327 324 322 321 316 316
226 219 208 206 211 213 200 202 208 208 222 231 244 256 246 242 263 292 300 265 266 287 306 324 306 300 302 323 305 314 316 320 321 329 332 331 333 331 327 326 319 322 318
223 224 208 207 210 202 201 212 213 211 217 235 250 255 179 202 226 259 235 268 306 315 333 303 303 312 336 314 314 322 322 323 328 331 327 331 331 329 326 325 327 321 316
220 229 214 206 211 204 202 211 213 216 217 212 221 200 183 164 127 119 168 161 275 347 332 337 328 333 328 305 318 320 326 326 324 325 326 328 326 326 328 328 324 321 320
228 231 214 203 215 208 206 216 218 215 214 200 194 174 174 180 158 203 218 269 331 9 357 77 343 328 320 331 334 332 328 326 326 325 328 334 336 331 332 331 331 328 321
217 222 212 200 204 199 206 211 213 200 208 218 200 196 196 202 217 222 289 305 351 45 31 11 348 349 340 337 333 334 329 328 328 334 343 342 338 335 342 344 339 332 330
217 233 219 205 206 206 208 204 199 197 196 195 197 201 224 207 212 233 264 301 74 69 45 15 358 347 343 339 335 333 331 332 341 353 345 340 346 356 353 347 341 339 335
225 213 198 213 200 204 202 192 190 183 182 186 188 214 236 170 155 218 235 63 40 50 39 16 356 349 342 336 337 334 337 342 353 358 2 359 1 356 349 350 350 349 344
235 195 192 208 204 200 194 189 181 174 180 186 196 171 155 161 152 135 107 32 51 50 70 9 348 343 343 340 334 337 341 348 2 354 357 358 360 354 355 355 354 352 350
233 196 203 202 197 188 181 176 174 177 179 172 161 152 154 146 131 145 105 30 23 29 43 9 343 343 337 334 338 339 347 10 3 2 357 357 357 355 358 358 359 353 353
234 200 195 196 189 170 169 174 176 175 178 164 155 146 146 133 143 142 118 114 31 43 55 12 353 344 337 337 342 354 16 18 15 12 5 5 358 357 3 358 1 4 5
196 185 193 180 178 174 173 187 171 167 158 142 132 137 131 135 148 116 100 73 67 63 63 50 349 337 339 350 5 26 33 29 20 16 9 9 5 3 5 0 1 1 3
226 223 204 189 183 174 175 178 172 158 143 131 122 126 118 123 117 100 79 76 115 59 76 39 343 358 4 13 29 37 36 30 20 15 13 12 7 5 6 5 0 0 358
212 204 185 200 175 167 169 171 161 141 133 124 118 114 108 112 96 84 76 81 77 84 39 18 25 23 22 36 43 43 37 27 26 15 21 18 17 9 9 11 7 6 9
190 174 182 182 168 163 159 148 149 139 128 115 112 108 106 101 88 82 73 67 63 60 56 51 42 39 42 50 47 43 38 34 27 25 26 23 15 18 15 14 12 7 14
161 149 151 147 148 152 148 147 144 141 120 119 111 107 99 87 90 82 62 64 54 51 58 53 50 55 61 55 41 37 28 30 38 41 35 28 19 23 22 25 22 14 12
162 157 145 139 131 121 141 142 139 124 118 113 107 100 105 99 92 86 65 58 54 55 54 55 60 71 57 53 45 27 23 23 29 40 41 39 34 36 35 33 30 23 16
153 145 143 138 121 120 124 140 135 117 112 104 98 99 106 105 98 93 75 66 53 54 53 56 66 66 64 52 43 42 35 34 35 37 51 53 51 48 45 38 32 26 24
146 138 129 127 116 123 134 141 118 110 107 100 98 99 99 105 108 87 75 64 61 52 54 65 71 68 59 57 51 44 42 44 40 43 47 45 46 46 43 40 34 29 29
139 132 127 123 126 120 116 120 115 107 100 92 92 88 84 88 97 96 83 70 71 58 55 78 76 68 67 67 61 53 45 42 44 38 41 38 29 28 34 33 28 27 31
136 130 126 122 114 110 115 113 101 97 97 91 81 71 65 81 86 86 84 81 70 60 67 86 88 85 69 61 54 51 49 45 41 44 35 39 35 28 24 21 22 22 31